Regional Weather Roundup
Issued by NWS Charleston, SC

Current Version | Previous Version | Text Only | Print | Product List | Glossary Off
Versions: 1 2 3 4 5 6 7 8 9 10 11 12 13 14 15 16 17 18 19 20 21 22 23 24 25 26 27 28 29 30 31 32 33 34 35 36 37 38 39 40 41 42 43 44 45 46 47 48 49 50

000
ASUS42 KCHS 030027
RWRCHS

REGIONAL WEATHER ROUNDUP
NATIONAL WEATHER SERVICE CHARLESTON SC
800 PM EDT THU JUL 02 2015

NOTE: "FAIR" INDICATES FEW OR NO CLOUDS BELOW 12,000 FEET WITH NO
SIGNIFICANT WEATHER AND/OR OBSTRUCTIONS TO VISIBILITY.

NOT ALL STATIONS ARE QUALITY CONTROLLED BY THE NATIONAL
WEATHER SERVICE. USE DATA WITH CAUTION...ESPECIALLY
DEWPOINT OBSERVATIONS.

SCZ027-030-031-034>040-042>050-030100-
...SOUTHEAST SOUTH CAROLINA...

CITY           SKY/WX    TMP DP  RH WIND       PRES   REMARKS
N CHARLESTON   TSTM      72  70  94 W9G28     30.05R VSB 1
6HR MIN TEMP:  77; 6HR MAX TEMP:  91; 6HR PCP: TRACE;

WATERFRONT PAR   N/A     83  76  79 SW18      29.91S HX  91
MOUNT PLEASANT LGT RAIN  82  75  78 S15G25    29.97R
JOHNS ISLAND   MOCLDY    82  77  83 W20G26    30.03R HX  91
PINOPOLIS      NOT AVBL
MONCKS CORNER  TSTM      72  68  88 SW6       30.00F
SUMMERVILLE    TSTM      70  70 100 CALM      30.03R
BEAUFORT MCAS  TSTM      71  69  93 NW10      30.02R
6HR MIN TEMP:  72; 6HR MAX TEMP:  95; 6HR PCP:  0.52;

BEAUFORT ARPT  TSTM      72  70  94 SW7G22    30.02R
HILTON HEAD IS TSTM      72  72 100 SW8G26    30.07R VSB 3/4
WALTERBORO     NOT AVBL
ALLENDALE      LGT RAIN  72  70  94 VRB6G15   30.02R

...SOUTHERN MIDLANDS AND PEE DEE...

CITY           SKY/WX    TMP DP  RH WIND       PRES   REMARKS
GEORGETOWN     NOT AVBL
KINGSTREE      NOT AVBL
ORANGEBURG     LGT RAIN  71  68  90 SW10      29.98S
6HR MIN TEMP:  71; 6HR MAX TEMP:  93; 6HR PCP:  0.81;

BARNWELL       RAIN      72  72 100 SW10      30.02R
AIKEN          NOT AVBL
MANNING        RAIN      70  70 100 SW3       29.97R
COLUMBIA       LGT RAIN  72  69  90 SW9       29.94S
6HR MIN TEMP:  72; 6HR MAX TEMP:  94; 6HR PCP:  1.21;

SUMTER         CLOUDY    72  68  88 SW10      29.90F
6HR MIN TEMP:  71; 6HR MAX TEMP:  93; 6HR PCP:  0.69;

FLORENCE       RAIN      73  69  87 SW9       29.90F FOG
6HR MIN TEMP:  73; 6HR MAX TEMP:  93;

MYRTLE BEACH   PTCLDY    84  73  70 S13       29.92R HX  91
N MYRTLE BEACH PTCLDY    82  77  84 SW25G33   29.94R HX  90
6HR MIN TEMP:  83; 6HR MAX TEMP:  91;


$$

GAZ063-065-086>088-099>101-113>116-118-119-134>141-150-030100-
...SOUTHEAST GEORGIA...

CITY           SKY/WX    TMP DP  RH WIND       PRES   REMARKS
SAVANNAH ARPT  LGT RAIN  73  67  81 W18G24    30.00R
6HR MIN TEMP:  73; 6HR MAX TEMP:  93; 6HR PCP: TRACE;

HUNTER AAF     MOCLDY    75  70  84 W21G29    30.00R
6HR MIN TEMP:  75; 6HR MAX TEMP:  94; 6HR PCP: TRACE;

FORT STEWART   RAIN      73  70  90 SW8       30.01F
6HR MIN TEMP:  73; 6HR MAX TEMP:  92; 6HR PCP:  0.15;

STATESBORO     NOT AVBL
SYLVANIA       LGT RAIN  73  72  96 CALM      30.05F
CLAXTON        RAIN      72  70  94 CALM      30.03F

...CSRA...CENTRAL AND FAR SOUTHEAST GEORGIA...

CITY           SKY/WX    TMP DP  RH WIND       PRES   REMARKS
THOMSON        CLOUDY    72  72  99 S3        30.02R
AUGUSTA-BUSH   RAIN      71  69  93 S10       29.99R FOG
6HR MIN TEMP:  71; 6HR MAX TEMP:  94; 6HR PCP:  0.90;

AUGUSTA-DANIEL LGT RAIN  72  70  93 S8        30.00R
SWAINSBORO     CLOUDY   N/A N/A N/A E3        30.06R
VIDALIA        LGT RAIN  72  70  94 SW9       30.03F
EASTMAN        FAIR      74  74 100 CALM      30.05S
HAZLEHURST     LGT RAIN  73  73 100 CALM      30.03R
ALMA           CLOUDY    73  71  93 CALM      30.03F
6HR MIN TEMP:  72; 6HR MAX TEMP:  91; 6HR PCP:  0.53;

WAYCROSS       DRIZZLE   75  74  97 CALM      30.04S
JESUP          LGT RAIN  75  73  94 SW3       30.05R
BAXLEY         LGT RAIN  73  72  94 CALM      30.03S
BRUNSWICK      CLOUDY    73  72  94 CALM      30.05F
SAINT SIMONS   RAIN      73  71  93 W6        30.05F FOG
6HR MIN TEMP:  73; 6HR MAX TEMP:  93; 6HR PCP:  0.18;


$$

SCZ027-028-034-036>038-045-046-048>050-GAZ119-141-030100-
...LAKE AND SUPPLEMENTAL COASTAL OBSERVATIONS...

STATION/POSITION TIME  TEMP    WIND        PRES    WAVE   SWELL
                       AIR SEA DIR/SP/G            HT/PER HT/PER/DIR
                 (UTC) (F)     (DEG/KT/KT) (MB)    (FT/S) (FT/S/D)
UPR LAKE MARION  NOT AVBL
WINYAH BAY       2345   83     200/ 14     1012.0S
LAKE MURRAY      2300   73     210/ 13/ 15 1013.5R
ACE BASIN NERRS  2300   84     110/  3     1014.0S
FORT PULASKI     0000   73 84  260/  8/ 12 1018.0R
SAPELO ISLAND    0000   75     260/  8     1018.0R

$$

ANZ835-935-AMZ111-154-330-350-352-354-370-450-454-472-030100-
...C-MAN AND BUOY OBSERVATIONS...

STATION/POSITION TIME  TEMP    WIND        PRES    WAVE   SWELL
                       AIR SEA DIR/SP/G            HT/PER HT/PER/DIR
                 (UTC) (F)     (DEG/KT/KT) (MB)    (FT/S) (FT/S/D)
BUOY 41004       2350   83 82  200/ 21/ 25 1013.4R   5/ 5   2/ 8
BUOY 41008       2350   76 79  280/ 27/ 35 1016.4R   5/ 5   2/110/ 9
FOLLY BEACH CMAN 0000   82     210/ 25/ 28 1014.6R
CAPERS NEARSHORE 2308   83     210/ 19/ 27 1014.0F
FRIPP NEARSHORE  2300   83     210/ 21/ 25 1013.8R


STATION/POSITION TIME  TEMP    WIND        PRES    WAVE   SWELL
                       AIR SEA DIR/SP/G            HT/PER HT/PER/DIR
                 (UTC) (F)     (DEG/KT/KT) (MB)    (FT/S) (FT/S/D)
5E ST. MARYS GA  2321      78                N/A     3/ 4
FRYING PAN BUOY  2350   82 80  210/ 19/ 23 1013.8R   5/ 5   2/120/ 8
BUOY 41025       2350   83 83  210/ 23/ 29 1011.5F   6/ 6   2/120/ 9
CAPE LOOKOUT NC  0000   81     220/ 17/ 19 1012.5R
BUOY 41002       2350   81 80  200/ 16/ 19 1018.0R   5/ 7   2/160/ 9
BUOY 41010       2320   84 85  230/  8/ 10 1019.1R
ST AUGUSTINE FL  0000   76 73  210/  6/  7 1019.4S


$$


USA.gov is the U.S. government's official web portal to all federal, state and local government web resources and services.